Location: Holyhead Bay
(53.3667°N, 4.6667°W)
Time: 19:40:00
(UTC+00:00)

Cosmos 1867 - Pass Details

Date: 24 November 2020
Orbit: 776 x 800 km, 65.0° (Epoch: 17 January)

Event Time Altitude Azimuth Distance (km) Brightness Sun altitude
Rises 18:29:33 0° 202° (SSW) 3,269 7.2 -20.0°
Reaches altitude 10° 18:32:00 10° 197° (SSW) 2,348 6.3 -20.4°
Maximum altitude 18:37:11 49° 123° (ESE) 1,020 3.8 -21.2°
Enters shadow 18:37:58 45° 97° (E) 1,071 3.8 -21.3°
